Time,TemperatureF,DewpointF,PressureIn,WindDirection,WindDirectionDegrees,WindSpeedMPH,WindSpeedGustMPH,Humidity,HourlyPrecipIn,Conditions,Clouds,dailyrainin,SolarRadiationWatts/m^2,SoftwareType,DateUTC
2013-02-03 00:01:00,3.0,-3.0,-100.00,WNW,300,6.0,15.0,74,0.00,,,0.00,0.000000,,2013-02-03 06:01:00,
2013-02-03 00:21:00,3.0,-3.0,-100.00,WNW,300,6.0,15.0,74,0.00,,,0.00,0.000000,,2013-02-03 06:21:00,
2013-02-03 00:32:00,3.0,-3.0,-100.00,WNW,300,6.0,15.0,74,0.00,,,0.00,0.000000,,2013-02-03 06:32:00,
2013-02-03 00:42:00,3.0,-3.0,-100.00,WNW,300,6.0,15.0,74,0.00,,,0.00,0.000000,,2013-02-03 06:42:00,
2013-02-03 00:52:00,3.0,-3.0,-100.00,WNW,300,6.0,15.0,74,0.00,,,0.00,0.000000,,2013-02-03 06:52:00,
2013-02-03 01:01:00,2.0,-4.0,-100.00,WNW,292,7.0,13.0,75,0.00,,,0.00,0.000000,,2013-02-03 07:01:00,
2013-02-03 01:32:00,2.0,-4.0,-100.00,WNW,292,7.0,13.0,75,0.00,,,0.00,0.000000,,2013-02-03 07:32:00,
2013-02-03 01:42:00,2.0,-4.0,-100.00,WNW,292,7.0,13.0,75,0.00,,,0.00,0.000000,,2013-02-03 07:42:00,
2013-02-03 01:52:00,2.0,-4.0,-100.00,WNW,292,7.0,13.0,75,0.00,,,0.00,0.000000,,2013-02-03 07:52:00,
2013-02-03 02:01:00,2.0,-4.0,-100.00,WNW,293,6.0,14.0,75,0.00,,,0.00,0.000000,,2013-02-03 08:01:00,
2013-02-03 02:32:00,2.0,-4.0,-100.00,WNW,293,6.0,14.0,75,0.00,,,0.00,0.000000,,2013-02-03 08:32:00,
2013-02-03 02:42:00,2.0,-4.0,-100.00,WNW,293,6.0,14.0,75,0.00,,,0.00,0.000000,,2013-02-03 08:42:00,
2013-02-03 02:52:00,2.0,-4.0,-100.00,WNW,293,6.0,14.0,75,0.00,,,0.00,0.000000,,2013-02-03 08:52:00,
2013-02-03 03:01:00,2.0,-4.0,-100.00,WNW,296,6.0,14.0,75,0.00,,,0.00,0.000000,,2013-02-03 09:01:00,
2013-02-03 03:32:00,2.0,-4.0,-100.00,WNW,296,6.0,14.0,75,0.00,,,0.00,0.000000,,2013-02-03 09:32:00,
2013-02-03 03:42:00,2.0,-4.0,-100.00,WNW,296,6.0,14.0,75,0.00,,,0.00,0.000000,,2013-02-03 09:42:00,
2013-02-03 03:52:00,2.0,-4.0,-100.00,WNW,296,6.0,14.0,75,0.00,,,0.00,0.000000,,2013-02-03 09:52:00,
2013-02-03 04:01:00,2.0,-4.0,-100.00,WNW,292,5.0,12.0,74,0.00,,,0.00,0.000000,,2013-02-03 10:01:00,
2013-02-03 04:32:00,2.0,-4.0,-100.00,WNW,292,5.0,12.0,74,0.00,,,0.00,0.000000,,2013-02-03 10:32:00,
2013-02-03 04:42:00,2.0,-4.0,-100.00,WNW,292,5.0,12.0,74,0.00,,,0.00,0.000000,,2013-02-03 10:42:00,
2013-02-03 04:52:00,2.0,-4.0,-100.00,WNW,292,5.0,12.0,74,0.00,,,0.00,0.000000,,2013-02-03 10:52:00,
2013-02-03 05:01:00,3.0,-4.0,-100.00,WNW,294,6.0,12.0,73,0.00,,,0.00,0.000000,,2013-02-03 11:01:00,
2013-02-03 05:32:00,3.0,-4.0,-100.00,WNW,294,6.0,12.0,73,0.00,,,0.00,0.000000,,2013-02-03 11:32:00,
2013-02-03 05:42:00,3.0,-4.0,-100.00,WNW,294,6.0,12.0,73,0.00,,,0.00,0.000000,,2013-02-03 11:42:00,
2013-02-03 05:52:00,3.0,-4.0,-100.00,WNW,294,6.0,12.0,73,0.00,,,0.00,0.000000,,2013-02-03 11:52:00,
2013-02-03 06:01:00,3.0,-4.0,-100.00,WNW,302,7.0,11.0,72,0.00,,,0.00,0.000000,,2013-02-03 12:01:00,
2013-02-03 06:32:00,3.0,-4.0,-100.00,WNW,302,7.0,11.0,72,0.00,,,0.00,0.000000,,2013-02-03 12:32:00,
2013-02-03 06:42:00,3.0,-4.0,-100.00,WNW,302,7.0,11.0,72,0.00,,,0.00,0.000000,,2013-02-03 12:42:00,
2013-02-03 06:53:00,3.0,-4.0,-100.00,WNW,302,7.0,11.0,72,0.00,,,0.00,0.000000,,2013-02-03 12:53:00,
2013-02-03 07:01:00,2.0,-5.0,-100.00,NW,307,5.0,11.0,71,0.00,,,-99.99,0.000000,,2013-02-03 13:01:00,
2013-02-03 07:32:00,2.0,-5.0,-100.00,NW,307,5.0,11.0,71,0.00,,,-99.99,0.000000,,2013-02-03 13:32:00,
2013-02-03 07:42:00,2.0,-5.0,-100.00,NW,307,5.0,11.0,71,0.00,,,-99.99,0.000000,,2013-02-03 13:42:00,
2013-02-03 07:52:00,2.0,-5.0,-100.00,NW,307,5.0,11.0,71,0.00,,,-99.99,0.000000,,2013-02-03 13:52:00,
2013-02-03 08:01:00,2.0,-5.0,-100.00,NW,314,7.0,11.0,72,0.00,,,0.00,0.000000,,2013-02-03 14:01:00,
2013-02-03 08:32:00,2.0,-5.0,-100.00,NW,314,7.0,11.0,72,0.00,,,0.00,0.000000,,2013-02-03 14:32:00,
2013-02-03 08:42:00,2.0,-5.0,-100.00,NW,314,7.0,11.0,72,0.00,,,0.00,0.000000,,2013-02-03 14:42:00,
2013-02-03 08:52:00,2.0,-5.0,-100.00,NW,314,7.0,11.0,72,0.00,,,0.00,0.000000,,2013-02-03 14:52:00,
2013-02-03 09:01:00,2.0,-6.0,-100.00,NW,307,7.0,14.0,69,0.00,,,0.00,9.000000,,2013-02-03 15:01:00,
2013-02-03 09:33:00,2.0,-6.0,-100.00,NW,307,7.0,14.0,69,0.00,,,0.00,9.000000,,2013-02-03 15:33:00,
2013-02-03 09:42:00,2.0,-6.0,-100.00,NW,307,7.0,14.0,69,0.00,,,0.00,9.000000,,2013-02-03 15:42:00,
2013-02-03 09:52:00,2.0,-6.0,-100.00,NW,307,7.0,14.0,69,0.00,,,0.00,9.000000,,2013-02-03 15:52:00,
2013-02-03 10:01:00,5.0,-5.0,-100.00,NNW,344,6.0,13.0,63,0.00,,,0.00,27.000000,,2013-02-03 16:01:00,
2013-02-03 10:33:00,5.0,-5.0,-100.00,NNW,344,6.0,13.0,63,0.00,,,0.00,27.000000,,2013-02-03 16:33:00,
2013-02-03 10:42:00,5.0,-5.0,-100.00,NNW,344,6.0,13.0,63,0.00,,,0.00,27.000000,,2013-02-03 16:42:00,
2013-02-03 10:52:00,5.0,-5.0,-100.00,NNW,344,6.0,13.0,63,0.00,,,0.00,27.000000,,2013-02-03 16:52:00,
2013-02-03 12:01:00,9.0,-5.0,-100.00,WNW,303,5.0,10.0,51,-99.99,,,0.00,70.000000,,2013-02-03 18:01:00,
2013-02-03 12:23:00,9.0,-5.0,-100.00,WNW,303,5.0,10.0,51,-99.99,,,0.00,70.000000,,2013-02-03 18:23:00,
2013-02-03 12:33:00,9.0,-5.0,-100.00,WNW,303,5.0,10.0,51,-99.99,,,0.00,70.000000,,2013-02-03 18:33:00,
2013-02-03 12:42:00,9.0,-5.0,-100.00,WNW,303,5.0,10.0,51,-99.99,,,0.00,70.000000,,2013-02-03 18:42:00,
2013-02-03 12:52:00,9.0,-5.0,-100.00,WNW,303,5.0,10.0,51,-99.99,,,0.00,70.000000,,2013-02-03 18:52:00,
2013-02-03 13:01:00,8.0,-6.0,-100.00,WNW,292,6.0,11.0,51,0.00,,,0.00,90.000000,,2013-02-03 19:01:00,
2013-02-03 13:33:00,8.0,-6.0,-100.00,WNW,292,6.0,11.0,51,0.00,,,0.00,90.000000,,2013-02-03 19:33:00,
2013-02-03 13:42:00,8.0,-6.0,-100.00,WNW,292,6.0,11.0,51,0.00,,,0.00,90.000000,,2013-02-03 19:42:00,
2013-02-03 13:52:00,8.0,-6.0,-100.00,WNW,292,6.0,11.0,51,0.00,,,0.00,90.000000,,2013-02-03 19:52:00,
2013-02-03 14:01:00,9.0,-7.0,-100.00,West,259,6.0,10.0,48,0.00,,,0.00,105.000000,,2013-02-03 20:01:00,
2013-02-03 14:33:00,9.0,-7.0,-100.00,West,259,6.0,10.0,48,0.00,,,0.00,105.000000,,2013-02-03 20:33:00,
2013-02-03 14:42:00,9.0,-7.0,-100.00,West,259,6.0,10.0,48,0.00,,,0.00,105.000000,,2013-02-03 20:42:00,
2013-02-03 14:52:00,9.0,-7.0,-100.00,West,259,6.0,10.0,48,0.00,,,0.00,105.000000,,2013-02-03 20:52:00,
2013-02-03 15:01:00,10.0,-6.0,-100.00,West,281,5.0,10.0,47,0.00,,,0.00,115.000000,,2013-02-03 21:01:00,
2013-02-03 15:33:00,10.0,-6.0,-100.00,West,281,5.0,10.0,47,0.00,,,0.00,115.000000,,2013-02-03 21:33:00,
2013-02-03 15:42:00,10.0,-6.0,-100.00,West,281,5.0,10.0,47,0.00,,,0.00,115.000000,,2013-02-03 21:42:00,
2013-02-03 15:52:00,10.0,-6.0,-100.00,West,281,5.0,10.0,47,0.00,,,0.00,115.000000,,2013-02-03 21:52:00,
2013-02-03 16:01:00,11.0,-7.0,-100.00,NNW,332,3.0,8.0,44,0.00,,,0.00,108.000000,,2013-02-03 22:01:00,
2013-02-03 16:32:00,11.0,-7.0,-100.00,NNW,332,3.0,8.0,44,0.00,,,0.00,108.000000,,2013-02-03 22:32:00,
2013-02-03 16:42:00,11.0,-7.0,-100.00,NNW,332,3.0,8.0,44,0.00,,,0.00,108.000000,,2013-02-03 22:42:00,
2013-02-03 16:52:00,11.0,-7.0,-100.00,NNW,332,3.0,8.0,44,0.00,,,0.00,108.000000,,2013-02-03 22:52:00,
2013-02-03 17:01:00,4.0,-9.0,-100.00,NW,309,2.0,5.0,54,0.00,,,0.00,14.000000,,2013-02-03 23:01:00,
2013-02-03 17:32:00,4.0,-9.0,-100.00,NW,309,2.0,5.0,54,0.00,,,0.00,14.000000,,2013-02-03 23:32:00,
2013-02-03 17:42:00,4.0,-9.0,-100.00,NW,309,2.0,5.0,54,0.00,,,0.00,14.000000,,2013-02-03 23:42:00,
2013-02-03 17:52:00,4.0,-9.0,-100.00,NW,309,2.0,5.0,54,0.00,,,0.00,14.000000,,2013-02-03 23:52:00,
2013-02-03 19:01:00,-4.0,-11.0,-100.00,NNE,24,1.0,3.0,71,-99.99,,,0.00,0.000000,,2013-02-04 01:01:00,
2013-02-03 19:22:00,-4.0,-11.0,-100.00,NNE,24,1.0,3.0,71,-99.99,,,0.00,0.000000,,2013-02-04 01:22:00,
2013-02-03 19:32:00,-4.0,-11.0,-100.00,NNE,24,1.0,3.0,71,-99.99,,,0.00,0.000000,,2013-02-04 01:32:00,
2013-02-03 19:42:00,-4.0,-11.0,-100.00,NNE,24,1.0,3.0,71,-99.99,,,0.00,0.000000,,2013-02-04 01:42:00,
2013-02-03 19:52:00,-4.0,-11.0,-100.00,NNE,24,1.0,3.0,71,-99.99,,,0.00,0.000000,,2013-02-04 01:52:00,
2013-02-03 20:01:00,-7.0,-13.0,-100.00,WNW,302,2.0,5.0,74,0.00,,,0.00,0.000000,,2013-02-04 02:01:00,
2013-02-03 20:22:00,-7.0,-13.0,-100.00,WNW,302,2.0,5.0,74,0.00,,,0.00,0.000000,,2013-02-04 02:22:00,
2013-02-03 20:32:00,-7.0,-13.0,-100.00,WNW,302,2.0,5.0,74,0.00,,,0.00,0.000000,,2013-02-04 02:32:00,
2013-02-03 20:42:00,-7.0,-13.0,-100.00,WNW,302,2.0,5.0,74,0.00,,,0.00,0.000000,,2013-02-04 02:42:00,
2013-02-03 20:52:00,-7.0,-13.0,-100.00,WNW,302,2.0,5.0,74,0.00,,,0.00,0.000000,,2013-02-04 02:52:00,
2013-02-03 21:01:00,-10.0,-16.0,-100.00,WNW,302,0.0,4.0,74,0.00,,,0.00,0.000000,,2013-02-04 03:01:00,
2013-02-03 21:32:00,-10.0,-16.0,-100.00,WNW,302,0.0,4.0,74,0.00,,,0.00,0.000000,,2013-02-04 03:32:00,
2013-02-03 21:42:00,-10.0,-16.0,-100.00,WNW,302,0.0,4.0,74,0.00,,,0.00,0.000000,,2013-02-04 03:42:00,
2013-02-03 21:52:00,-10.0,-16.0,-100.00,WNW,302,0.0,4.0,74,0.00,,,0.00,0.000000,,2013-02-04 03:52:00,
2013-02-03 22:01:00,-13.0,-19.0,-100.00,NW,315,0.0,2.0,74,0.00,,,0.00,0.000000,,2013-02-04 04:01:00,
2013-02-03 22:32:00,-13.0,-19.0,-100.00,NW,315,0.0,2.0,74,0.00,,,0.00,0.000000,,2013-02-04 04:32:00,
2013-02-03 22:42:00,-13.0,-19.0,-100.00,NW,315,0.0,2.0,74,0.00,,,0.00,0.000000,,2013-02-04 04:42:00,
2013-02-03 22:52:00,-13.0,-19.0,-100.00,NW,315,0.0,2.0,74,0.00,,,0.00,0.000000,,2013-02-04 04:52:00,
2013-02-03 23:01:00,-15.0,-22.0,-100.00,WNW,297,0.0,4.0,70,0.00,,,0.00,0.000000,,2013-02-04 05:01:00,
2013-02-03 23:22:00,-15.0,-22.0,-100.00,WNW,297,0.0,4.0,70,0.00,,,0.00,0.000000,,2013-02-04 05:22:00,
2013-02-03 23:33:00,-15.0,-22.0,-100.00,WNW,297,0.0,4.0,70,0.00,,,0.00,0.000000,,2013-02-04 05:33:00,
2013-02-03 23:42:00,-15.0,-22.0,-100.00,WNW,297,0.0,4.0,70,0.00,,,0.00,0.000000,,2013-02-04 05:42:00,
2013-02-03 23:52:00,-15.0,-22.0,-100.00,WNW,297,0.0,4.0,70,0.00,,,0.00,0.000000,,2013-02-04 05:52:00,